Location: Klinovec
(50.3970°N, 12.9600°E)
Time: 02:37:41
(UTC+01:00)

N. Korean satellite - Pass Details

Date: 18 November 2019
Orbit: 456 x 506 km, 97.2° (Epoch: 05 December)

Event Time Altitude Azimuth Distance (km) Brightness Sun altitude
Rises 18:11:23 0° 208° (SSW) 2,562 10.8 -17.6°
Reaches altitude 10° 18:14:04 10° 230° (SW) 1,696 10.2 -18.0°
Maximum altitude 18:16:25 16° 270° (W) 1,367 9.9 -18.3°
Drops below altitude 10° 18:18:47 10° 310° (NW) 1,720 9.9 -18.7°
Sets 18:21:33 0° 332° (NNW) 2,617 10.5 -19.2°
